Land O' Lakes, WI

4:34 PM CDT on April 28, 2017 (GMT -0500)
Kings Land O'Lakes

Weather History for KLNL - January, 2014

Change the Weather History Date:

Monday, January 6, 2014

  Actual Average (KEGV) Record (KEGV)
Temperature  
Mean Temperature -20 °F -  
Max Temperature -15 °F 22 °F 42 °F (2012)
Min Temperature -26 °F 7 °F -27 °F (2014)
Degree Days  
Heating Degree Days 86    
Moisture  
Dew Point -28 °F    
Average Humidity 65    
Maximum Humidity 74    
Minimum Humidity 54    
Precipitation  
Precipitation 0.00 in - - ()
Sea Level Pressure  
Sea Level Pressure 29.88 in    
Wind  
Wind Speed 8 mph (West)    
Max Wind Speed 14 mph    
Max Gust Speed 22 mph    
Visibility 9 miles    
Events Snow    
Averages and records for this station are not official NWS values.
T = Trace of Precipitation, MM = Missing Value Source: NWS Daily Summary

Daily Weather History Graph

Daily Weather History Graph

Search for Another Location

Airport or City:

Trip Planner

Search our weather history database for the weather conditions in past years. The results will help you decide how hot, cold, wet, or windy it might be!

Date:

Astronomy

Jan. 06, 2014 Rise Set
Actual Time 7:38 AM CST 4:26 PM CST
Civil Twilight 7:04 AM CST 5:01 PM CST
Nautical Twilight 6:26 AM CST 5:38 PM CST
Astronomical Twilight 5:50 AM CST 6:15 PM CST
Moon 10:32 AM CST (1/6) 11:23 PM CST (1/6)
Length of Visible Light 9h 56m
Length of Day
8h 47m
Waxing Crescent, 35% of the Moon is Illuminated
Jan 6
Waxing Crescent
Jan 7
First Quarter
Jan 15
Full
Jan 23
Last Quarter
Jan 30
New

Hourly Weather History & Observations

Time (CST) Temp. Windchill Dew Point Humidity Pressure Visibility Wind Dir Wind Speed Gust Speed Precip Events Conditions
12:15 AM -15.2 °F -32.6 °F -21.3 °F 74% 29.92 in 10.0 mi WNW 8.1 mph - N/A Snow Light Snow
12:35 AM -15.2 °F -32.6 °F -21.5 °F 73% 29.91 in 10.0 mi WNW 8.1 mph - N/A   Mostly Cloudy
12:55 AM -15.7 °F -34.6 °F -22.0 °F 73% 29.91 in 10.0 mi WNW 9.2 mph 17.3 mph N/A   Mostly Cloudy
1:15 AM -15.9 °F -36.0 °F -22.4 °F 73% 29.90 in 10.0 mi WNW 10.4 mph - N/A   Clear
1:35 AM -16.2 °F -35.2 °F -23.1 °F 71% 29.91 in 10.0 mi WNW 9.2 mph - N/A   Mostly Cloudy
1:55 AM -16.6 °F -32.9 °F -23.6 °F 70% 29.91 in 10.0 mi West 6.9 mph - N/A   Overcast
2:35 AM -17.1 °F -31.9 °F -24.5 °F 69% 29.91 in 10.0 mi WNW 5.8 mph - N/A   Overcast
2:55 AM -17.7 °F -37.0 °F -25.2 °F 68% 29.91 in 10.0 mi WNW 9.2 mph 17.3 mph N/A   Scattered Clouds
3:15 AM -18.4 °F -35.1 °F -25.6 °F 70% 29.90 in 10.0 mi WNW 6.9 mph - N/A   Clear
3:35 AM -19.1 °F -37.5 °F -26.5 °F 69% 29.90 in 10.0 mi WNW 8.1 mph 16.1 mph N/A   Clear
3:55 AM -19.5 °F -39.2 °F -27.0 °F 68% 29.90 in 10.0 mi WNW 9.2 mph 17.3 mph N/A   Clear
4:15 AM -19.8 °F -38.3 °F -27.6 °F 68% 29.90 in 10.0 mi West 8.1 mph 17.3 mph N/A   Clear
4:35 AM -20.6 °F -37.7 °F -28.3 °F 67% 29.90 in 10.0 mi WNW 6.9 mph - N/A   Clear
4:55 AM -21.6 °F -40.5 °F -29.2 °F 68% 29.91 in 10.0 mi West 8.1 mph - N/A   Clear
5:15 AM -22.4 °F -39.9 °F -29.7 °F 69% 29.91 in 10.0 mi West 6.9 mph - N/A   Clear
5:35 AM -23.1 °F -43.7 °F -30.3 °F 69% 29.91 in 10.0 mi West 9.2 mph 16.1 mph N/A   Clear
5:55 AM -23.8 °F -43.2 °F -31.4 °F 68% 29.91 in 10.0 mi West 8.1 mph - N/A   Clear
6:15 AM -24.2 °F -45.0 °F -31.4 °F 69% 29.90 in 10.0 mi West 9.2 mph - N/A   Clear
6:35 AM -24.7 °F -45.7 °F -31.9 °F 69% 29.90 in 10.0 mi West 9.2 mph - N/A   Clear
6:55 AM -25.1 °F -44.7 °F -32.8 °F 67% 29.90 in 7.0 mi West 8.1 mph - N/A   Clear
7:15 AM -25.6 °F -45.4 °F -33.2 °F 67% 29.90 in 7.0 mi West 8.1 mph - N/A   Clear
7:35 AM -25.8 °F -40.0 °F -33.3 °F 67% 29.90 in 5.0 mi West 4.6 mph - N/A   Haze
7:55 AM -26.1 °F -44.4 °F -33.9 °F 67% 29.89 in 4.0 mi West 6.9 mph - N/A   Haze
8:15 AM -26.0 °F -48.5 °F -33.7 °F 67% 29.90 in 4.0 mi West 10.4 mph 16.1 mph N/A   Haze
8:35 AM -25.8 °F -47.0 °F -33.9 °F 66% 29.90 in 4.0 mi West 9.2 mph - N/A   Haze
8:55 AM -24.9 °F -47.1 °F -33.2 °F 65% 29.90 in 7.0 mi West 10.4 mph - N/A   Scattered Clouds
9:15 AM -23.3 °F -45.1 °F -32.1 °F 63% 29.90 in 10.0 mi West 10.4 mph 17.3 mph N/A   Mostly Cloudy
9:35 AM -23.3 °F -42.5 °F -32.6 °F 62% 29.90 in 10.0 mi West 8.1 mph - N/A   Mostly Cloudy
9:55 AM -22.2 °F -42.6 °F -31.7 °F 61% 29.90 in 10.0 mi West 9.2 mph 17.3 mph N/A   Overcast
10:15 AM -22.0 °F -43.6 °F -31.4 °F 62% 29.90 in 10.0 mi West 10.4 mph 17.3 mph N/A   Overcast
10:35 AM -21.1 °F -42.4 °F -31.0 °F 60% 29.89 in 10.0 mi West 10.4 mph 19.6 mph N/A   Overcast
10:55 AM -20.6 °F -41.8 °F -30.5 °F 60% 29.88 in 10.0 mi West 10.4 mph 21.9 mph N/A   Overcast
11:15 AM -19.1 °F -43.0 °F -29.4 °F 59% 29.88 in 10.0 mi WNW 13.8 mph 20.7 mph N/A   Mostly Cloudy
11:35 AM -18.6 °F -40.4 °F -29.2 °F 58% 29.87 in 10.0 mi West 11.5 mph 17.3 mph N/A   Mostly Cloudy
11:55 AM -18.0 °F -39.7 °F -28.8 °F 58% 29.86 in 10.0 mi West 11.5 mph 20.7 mph N/A   Overcast
12:15 PM -17.3 °F -39.8 °F -28.3 °F 57% 29.85 in 10.0 mi West 12.7 mph 16.1 mph N/A   Overcast
12:35 PM -16.8 °F -37.1 °F -28.5 °F 55% 29.85 in 10.0 mi WNW 10.4 mph 17.3 mph N/A   Overcast
12:55 PM -16.6 °F -35.7 °F -28.5 °F 55% 29.85 in 10.0 mi West 9.2 mph 16.1 mph N/A   Overcast
1:15 PM -17.1 °F -38.6 °F -29.2 °F 54% 29.85 in 10.0 mi WNW 11.5 mph 17.3 mph N/A   Overcast
1:35 PM -16.8 °F -38.1 °F -28.7 °F 55% 29.85 in 10.0 mi West 11.5 mph 16.1 mph N/A   Overcast
1:55 PM -16.2 °F -36.4 °F -28.5 °F 54% 29.85 in 10.0 mi West 10.4 mph - N/A   Overcast
2:15 PM -16.6 °F -36.8 °F -28.7 °F 54% 29.85 in 10.0 mi West 10.4 mph 17.3 mph N/A   Overcast
2:35 PM -16.4 °F -34.2 °F -28.5 °F 54% 29.85 in 10.0 mi West 8.1 mph - N/A   Mostly Cloudy
2:55 PM -16.6 °F -31.3 °F -28.1 °F 56% 29.85 in 10.0 mi West 5.8 mph - N/A   Clear
3:15 PM -16.6 °F -34.4 °F -27.4 °F 58% 29.86 in 10.0 mi WSW 8.1 mph - N/A   Scattered Clouds
3:35 PM -16.2 °F -36.4 °F -26.7 °F 59% 29.86 in 10.0 mi West 10.4 mph - N/A   Mostly Cloudy
3:55 PM -16.2 °F -34.0 °F -25.8 °F 62% 29.86 in 4.0 mi WSW 8.1 mph - N/A   Haze
4:15 PM -16.6 °F -29.3 °F -26.5 °F 61% 29.86 in 10.0 mi West 4.6 mph - N/A   Mostly Cloudy
4:35 PM -17.0 °F -29.7 °F -26.1 °F 63% 29.86 in 5.0 mi West 4.6 mph - N/A   Haze
4:55 PM -17.5 °F -34.0 °F -25.8 °F 66% 29.86 in 7.0 mi West 6.9 mph - N/A   Overcast
5:15 PM -17.5 °F -32.3 °F -26.3 °F 64% 29.87 in 10.0 mi West 5.8 mph - N/A   Mostly Cloudy
5:35 PM -17.5 °F -34.0 °F -25.6 °F 67% 29.87 in 10.0 mi West 6.9 mph - N/A   Scattered Clouds
5:55 PM -17.7 °F -35.7 °F -25.8 °F 67% 29.87 in 10.0 mi West 8.1 mph - N/A   Mostly Cloudy
6:15 PM -18.0 °F -38.6 °F -26.5 °F 65% 29.87 in 10.0 mi West 10.4 mph - N/A   Scattered Clouds
6:35 PM -18.4 °F -37.9 °F -26.5 °F 66% 29.87 in 7.0 mi West 9.2 mph 16.1 mph N/A   Scattered Clouds
6:55 PM -18.8 °F -38.3 °F -26.5 °F 68% 29.86 in 10.0 mi West 9.2 mph - N/A   Clear
7:15 PM -18.9 °F -38.6 °F -26.9 °F 67% 29.87 in 10.0 mi West 9.2 mph - N/A   Clear
7:35 PM -19.3 °F -37.7 °F -26.7 °F 69% 29.86 in 10.0 mi West 8.1 mph 18.4 mph N/A   Clear
7:55 PM -19.7 °F -40.6 °F -27.2 °F 68% 29.86 in 10.0 mi West 10.4 mph - N/A   Scattered Clouds
8:15 PM -19.7 °F -38.1 °F -27.4 °F 68% 29.85 in 10.0 mi West 8.1 mph - N/A   Mostly Cloudy
8:35 PM -20.2 °F -33.5 °F -27.6 °F 69% 29.86 in 10.0 mi West 4.6 mph - N/A   Mostly Cloudy
8:55 PM -20.2 °F -38.8 °F -27.6 °F 69% 29.84 in 10.0 mi West 8.1 mph - N/A   Mostly Cloudy
9:15 PM -20.2 °F -35.5 °F -27.4 °F 69% 29.84 in 10.0 mi West 5.8 mph - N/A   Scattered Clouds
9:35 PM -20.2 °F -35.5 °F -27.4 °F 69% 29.84 in 10.0 mi West 5.8 mph - N/A   Clear
9:55 PM -20.4 °F -37.5 °F -27.6 °F 69% 29.84 in 10.0 mi WSW 6.9 mph - N/A   Clear
10:15 PM -20.6 °F -37.7 °F -27.6 °F 70% 29.83 in 10.0 mi West 6.9 mph - N/A   Clear
10:35 PM -20.7 °F -37.9 °F -27.6 °F 71% 29.83 in 10.0 mi West 6.9 mph - N/A   Clear
10:55 PM -20.7 °F -39.4 °F -27.6 °F 71% 29.84 in 10.0 mi West 8.1 mph - N/A   Clear
11:15 PM -20.7 °F -37.9 °F -27.6 °F 71% 29.84 in 10.0 mi WSW 6.9 mph - N/A   Clear
11:35 PM -20.7 °F -40.8 °F -27.6 °F 71% 29.83 in 10.0 mi West 9.2 mph - N/A   Clear
11:55 PM -20.9 °F -38.1 °F -27.8 °F 71% 29.83 in 10.0 mi West 6.9 mph - N/A   Clear